Location: Unspecified
(49.2170°N, 0.0000°E)
Time: 15:33:21
(UTC+00:00)

Tiros 1 despin weight - Pass Details

Date: 23 January 2021
Orbit: 593 x 642 km, 48.2° (Epoch: 07 March)

Event Time Altitude Azimuth Distance (km) Brightness Sun altitude
Rises 16:37:19 0° 257° (WSW) 2,873 ? -0.1°
Reaches altitude 10° 16:39:38 10° 256° (WSW) 1,961 ? -0.5°
Maximum altitude 16:44:07 74° 172° (S) 630 ? -1.1°
Drops below altitude 10° 16:48:33 10° 87° (E) 1,937 ? -1.7°
Enters shadow 16:50:48 - 86° (E) 2,823 ? -2.1°
Sets 16:50:50 0° 86° (E) 2,835 - -2.1°
